Swisher, IA

11:45 PM CDT on August 26, 2016 (GMT -0500)
The Eastern Iowa Airport

Weather History for KCID - September, 2012

Change the Weather History Date:

Friday, September 14, 2012

  Actual Average Record
Temperature  
Mean Temperature 57 °F 64 °F  
Max Temperature 73 °F 75 °F 96 °F (1939)
Min Temperature 41 °F 52 °F 36 °F (1996)
Degree Days  
Heating Degree Days 8 4  
Month to date heating degree days 36 34  
Since 1 July heating degree days 50 53  
Growing Degree Days 7 (Base 50)    
Moisture  
Dew Point 45 °F    
Average Humidity 66    
Maximum Humidity 100    
Minimum Humidity 31    
Precipitation  
Precipitation 0.00 in 0.11 in 2.78 in (1967)
Month to date precipitation 1.56 1.57  
Year to date precipitation 17.60 26.87  
Sea Level Pressure  
Sea Level Pressure 30.34 in    
Wind  
Wind Speed 6 mph (SW)    
Max Wind Speed 16 mph    
Max Gust Speed 20 mph    
Visibility 10 miles    
Events      
T = Trace of Precipitation, MM = Missing Value Source: NWS Daily Summary

Daily Weather History Graph

Daily Weather History Graph

Search for Another Location

Airport or City:

Trip Planner

Search our weather history database for the weather conditions in past years. The results will help you decide how hot, cold, wet, or windy it might be!

Date:

Astronomy

Sep. 14, 2012 Rise Set
Actual Time 6:46 AM CDT 7:17 PM CDT
Civil Twilight 6:18 AM CDT 7:45 PM CDT
Nautical Twilight 5:45 AM CDT 8:18 PM CDT
Astronomical Twilight 5:11 AM CDT 8:51 PM CDT
Moon 5:10 AM CDT (9/14) 6:14 PM CDT (9/14)
Length of Visible Light 13h 26m
Length of Day
12h 30m
Waning Crescent, 2% of the Moon is Illuminated
Sep 14
Waning Crescent
Sep 15
New
Sep 22
First Quarter
Sep 29
Full
Oct 8
Last Quarter

Hourly Weather History & Observations

Time (CDT) Temp. Windchill Dew Point Humidity Pressure Visibility Wind Dir Wind Speed Gust Speed Precip Events Conditions
12:52 AM 46.9 °F - 46.9 °F 100% 30.37 in 10.0 mi WNW 3.5 mph - N/A   Clear
1:52 AM 46.0 °F 43.9 °F 46.0 °F 100% 30.36 in 10.0 mi West 4.6 mph - N/A   Clear
2:52 AM 46.0 °F 44.8 °F 46.0 °F 100% 30.36 in 10.0 mi West 3.5 mph - N/A   Clear
3:52 AM 45.0 °F - 45.0 °F 100% 30.35 in 10.0 mi Calm Calm - N/A   Clear
4:52 AM 45.0 °F - 45.0 °F 100% 30.35 in 10.0 mi Calm Calm - N/A   Clear
5:52 AM 44.1 °F - 44.1 °F 100% 30.35 in 8.0 mi Calm Calm - N/A   Clear
6:52 AM 42.1 °F - 42.1 °F 100% 30.37 in 8.0 mi Calm Calm - N/A   Clear
7:52 AM 46.9 °F - 46.9 °F 100% 30.38 in 10.0 mi Calm Calm - N/A   Clear
8:52 AM 53.1 °F - 50.0 °F 89% 30.38 in 10.0 mi West 4.6 mph - N/A   Clear
9:52 AM 59.0 °F - 51.1 °F 75% 30.38 in 10.0 mi WSW 6.9 mph - N/A   Clear
10:52 AM 63.0 °F - 43.0 °F 48% 30.38 in 10.0 mi WSW 10.4 mph - N/A   Clear
11:52 AM 66.0 °F - 45.0 °F 47% 30.37 in 10.0 mi SSW 10.4 mph - N/A   Clear
12:52 PM 69.1 °F - 42.1 °F 38% 30.35 in 10.0 mi SW 10.4 mph 18.4 mph N/A   Clear
1:52 PM 69.8 °F - 39.2 °F 33% 30.33 in 10.0 mi SW 9.2 mph - N/A   Clear
2:52 PM 70.0 °F - 39.0 °F 32% 30.31 in 10.0 mi Variable 5.8 mph - N/A   Clear
3:52 PM 72.0 °F - 39.9 °F 31% 30.30 in 10.0 mi WSW 6.9 mph - N/A   Clear
4:52 PM 72.0 °F - 41.0 °F 33% 30.29 in 10.0 mi WSW 11.5 mph - N/A   Clear
5:52 PM 71.1 °F - 42.1 °F 35% 30.29 in 10.0 mi West 8.1 mph - N/A   Clear
6:52 PM 64.0 °F - 48.0 °F 56% 30.30 in 10.0 mi SW 5.8 mph - N/A   Clear
7:52 PM 59.0 °F - 46.9 °F 64% 30.29 in 10.0 mi South 3.5 mph - N/A   Clear
8:52 PM 54.0 °F - 46.9 °F 77% 30.30 in 10.0 mi SSW 5.8 mph - N/A   Clear
9:52 PM 54.0 °F - 46.0 °F 75% 30.30 in 10.0 mi SSW 5.8 mph - N/A   Clear
10:52 PM 53.1 °F - 45.0 °F 74% 30.31 in 10.0 mi SSW 5.8 mph - N/A   Clear
11:52 PM 52.0 °F - 45.0 °F 77% 30.30 in 10.0 mi SSW 6.9 mph - N/A   Clear